Погода в Сарти

Греция     40°05′44″N   23°58′36″E
темп.,
°C
ветер,
м/с
пор.,
м/с
влажн.,
%
обл.,
%
осадки,
мм/ч
давл.,
гПа
погр.,
м
24 сентября, пт
пт2400:00+17з22530 0.0 1020188
03:00+17з23530 0.0 1019314
06:00+17сз235596 0.0 1018216
09:00+19зсз2246100 0.0 1019307
12:00+22з233217 0.0 10191101
15:00+22зюз443211 0.0 10171018
18:00+21юз554389 0.0 1016545
21:00+19зюз34535 0.0 1017213
25 сентября, сб
сб2500:00+19зюз23550 0.0 1018182
03:00+19з22580 0.0 1017120
06:00+18сз11570 0.0 101764
09:00+21сз11490 0.0 1019143
12:00+24ююв21410 0.0 1020576
15:00+25ю32440 0.0 1019614
18:00+24ююв32480 0.0 1019379
21:00+21вюв22610 0.0 1020120
26 сентября, вс
вс2600:00+21св11620 0.0 102182
03:00+20с22600 0.0 102180
06:00+20с33620 0.0 1021107
09:00+22с33550 0.0 1021212
12:00+25ссв22420 0.0 1021590
15:00+25ююв11430 0.0 1020605
18:00+25ююз21450 0.0 1018453
21:00+23з00560 0.0 101812
27 сентября, пн
пн2700:00+22с12570 0.0 101814
03:00+21с226056 0.0 101839
06:00+21с23616 0.0 101760
09:00+23ссв11543 0.0 1017100
12:00+26юв11445 0.0 1017557
15:00+26юв11440 0.0 1016672
18:00+25вюв21490 0.0 1015355
21:00+23ссв11554 0.0 101615
28 сентября, вт
вт2800:00+22всв596185 0.0 1016333
03:00+21всв457328 0.0 1016218
06:00+20с457225 0.0 1016258
09:00+21ссв346694 0.0 1017425
12:00+23св4659100 0.0 1017774
15:00+22св3458100 0.0 1017756
18:00+21ссв3568100 0.3 1017331
21:00+21ссз4569100 0.5 1017477